Location: Holkham
(52.9500°N, 0.8167°E)
Time: 05:42:38
(UTC+00:00)

Cosmos 1470 - Pass Details

Date: 19 May 2025
Orbit: 455 x 466 km, 82.5° (Epoch: 13 June)

Event Time Altitude Azimuth Distance (km) Brightness Sun altitude
Rises 22:57:26 0° 351° (N) 2,524 8.0 -16.1°
Reaches altitude 10° 22:59:34 10° 356° (N) 1,644 6.6 -16.1°
Maximum altitude 23:03:06 58° 76° (ENE) 558 2.8 -16.3°
Enters shadow 23:04:24 34° 140° (SE) 791 3.1 -16.3°
